Location: Rockland Mine Post Office (historical)
(38.6463°N, 119.0946°W)
Time: 05:31:25
(UTC+00:00)

Daily predictions for brighter satellites

Satellite Brightness Start Highest point End
(mag) Time Altitude Azimuth Time Altitude Azimuth Time Altitude Azimuth
Cosmos 1437 Rocket 3.2 03:25:10 10° SSW 03:29:02 69° W 03:33:00 10° N
CZ-4C R/B 3.9 03:22:38 10° NNW 03:29:19 36° NE 03:36:51 10° ESE
Cosmos 1606 3.7 03:27:14 10° SSW 03:30:54 50° W 03:34:36 10° N
SL-08 ROCKET BODY 4.4 03:25:53 10° N 03:31:46 87° E 03:37:36 10° S
Cosmos 1689 Rocket 4.3 03:35:22 10° N 03:37:50 29° WNW 03:40:17 10° SW
Cosmos 1745 Rocket 4.0 03:32:51 10° N 03:39:00 66° E 03:45:04 10° SSE
USA 186 1.3 03:41:23 10° S 03:43:48 66° WSW 03:46:08 10° NNW
DELTA 2 R/B (1) 4.2 03:39:22 10° W 03:44:40 45° SSW 03:49:47 11° SE
Resurs 01 Rocket 3.0 03:42:36 10° ESE 03:46:07 23° ENE 03:49:39 10° NNE
Cosmos 2082 Rocket 4.1 03:43:46 10° NNE 03:46:52 15° NE 03:49:57 10° E
Delta 2 Rocket 4.0 03:42:10 10° WSW 03:47:23 53° S 03:52:04 10° E
Helios 1A Rocket 3.9 03:49:15 10° S 03:53:14 49° W 03:57:16 10° NNW
CZ-4 R/B 4.4 03:52:22 10° WSW 03:54:13 13° W 03:56:03 10° WNW
Cosmos 1805 Rocket 3.9 03:49:55 10° NNW 03:54:16 69° W 03:58:36 10° S
Intercosmos 24 3.8 03:51:55 10° S 03:55:37 76° W 03:59:13 10° N
Meteor 1-26 Rocket 4.2 03:50:42 10° S 03:56:18 66° E 04:01:46 10° NNE
S3M 4.3 03:50:21 10° S 03:56:43 78° W 04:03:04 10° N
Cosmos 1633 Rocket 3.5 03:53:44 10° N 03:57:57 43° E 04:01:39 13° SSE
Cosmos 1812 3.9 03:57:33 14° SE 03:59:57 25° E 04:03:07 10° NE
X-37B 0.6 03:57:42 10° WNW 04:00:53 74° SSW 04:03:02 19° SE
Cosmos 1933 3.9 03:58:01 10° SSW 04:02:00 61° W 04:05:59 10° N
Cosmos 1328 Rocket 3.7 03:58:10 10° S 04:02:27 52° E 04:06:45 10° NNE
Cosmos 1782 2.7 04:00:10 10° S 04:04:08 71° E 04:08:06 10° NNE
COSMOS 2406 4.0 03:58:53 10° N 04:04:08 37° ENE 04:08:07 16° ESE
MOS 1-B Rocket 4.4 04:00:39 10° N 04:07:39 77° WNW 04:13:39 10° SSW
Cosmos 2278 Rocket 2.2 04:02:29 10° S 04:08:02 63° ESE 04:13:38 10° NNE
Cosmos 2315 Rocket 4.0 04:03:24 10° S 04:09:43 71° E 04:16:05 10° NNE
Meteor 1-20 Rocket 4.4 04:06:19 10° NNW 04:11:51 74° W 04:17:18 10° S
BREEZE-M DEB (TANK) 3.4 04:03:44 10° NW 04:12:31 72° NNE 04:14:34 21° ESE
Cosmos 1470 Rocket 4.3 04:09:28 10° N 04:13:38 37° ENE 04:16:06 20° SE
SJ-6B 3.8 04:12:00 10° S 04:15:44 45° W 04:19:36 10° NNW
BREEZE M DEB (TANK) 4.4 04:13:59 10° NW 04:17:40 18° N 04:19:45 10° NE
ATLAS 2AS CENTAUR R/B 4.3 04:12:27 10° NNW 04:18:10 23° NE 04:23:32 10° E
ATLAS 5 CENTAUR R/B 3.0 04:12:43 10° NW 04:18:32 58° WSW 04:24:43 12° SSE
Cosmos 1242 Rocket 4.5 04:16:33 10° SW 04:19:45 31° WNW 04:22:56 10° NNW
OBJECT-B 2.6 04:18:05 10° SSW 04:20:58 29° W 04:23:51 10° NW
Meteor 1-14 Rocket 4.4 04:15:49 10° N 04:21:33 59° ENE 04:25:35 19° SSE
Cosmos 1437 2.7 04:20:16 10° SSW 04:23:05 67° W 04:25:54 10° N
Cosmos 773 Rocket 4.0 04:20:17 10° NNW 04:25:36 86° ENE 04:29:25 19° SSE
GPS 2-04 Rocket1 2.9 04:23:22 10° W 04:27:26 55° S 04:29:17 29° ESE
Cosmos 1933 Rocket 4.4 04:23:36 10° NNE 04:27:31 32° ENE 04:29:00 26° ESE
Cosmos 1666 Rocket 3.9 04:25:06 10° NNW 04:29:26 64° W 04:33:18 12° S
Resurs 1-3 3.9 04:25:33 13° S 04:29:27 66° WSW 04:33:50 10° NNW
SJ 16-02 1.3 04:26:38 10° S 04:31:01 67° ESE 04:35:25 10° NNE
SPOT 3 Rocket 3.6 04:28:01 21° SSE 04:31:23 65° ENE 04:36:30 10° N
Tianhe-1 1.0 04:28:56 10° WSW 04:32:01 60° SSE 04:32:58 38° E
USA 305 3.8 04:28:36 10° NW 04:32:39 40° NE 04:34:48 23° E
Cosmos 1500 3.1 04:29:09 10° N 04:32:53 67° E 04:34:30 31° SSE
ARIANE 5 R/B 3.9 04:31:46 21° E 04:32:59 23° ENE 04:36:25 10° NNE
Cosmos 1538 Rocket 4.3 04:28:07 10° N 04:33:22 52° ENE 04:36:02 27° SE
ISS -3.9 04:31:53 10° SW 04:35:14 74° SE 04:38:36 10° NE
OAO 3 Rocket 3.5 04:33:37 10° WSW 04:38:00 42° SSE 04:39:32 32° ESE
Terra 3.7 04:39:11 14° E 04:40:20 15° ENE 04:42:59 10° NNE
Cosmos 1151 Rocket 4.3 04:37:34 10° SSW 04:41:41 41° WNW 04:45:52 10° N
Cosmos 1833 Rocket 2.6 04:38:41 10° NNW 04:44:22 80° ENE 04:47:20 29° SSE
USA 245 4.4 04:47:00 16° NNE 04:47:00 16° NNE 04:47:47 10° NNE
OE (NEXTSAT) 4.2 04:42:55 10° WNW 04:46:23 75° SSW 04:46:59 56° SE
IGS 5A 3.4 04:46:46 30° S 04:48:45 80° WSW 04:52:55 10° NNW
USA 306 3.3 04:48:04 10° NW 04:52:16 55° NE 04:53:37 38° E
Cosmos 1536 4.3 04:52:56 10° NNE 04:55:58 23° ENE 04:55:58 23° ENE
SPOT 5 3.8 05:01:08 32° E 05:02:23 37° ENE 05:07:13 10° N
Meteor 1-5 Rocket 4.0 04:57:31 10° N 05:02:52 86° W 05:05:16 34° S
Meteor 1-11 Rocket 4.1 04:58:08 10° N 05:03:55 51° ENE 05:05:45 38° SE
Cosmos 1271 Rocket 2.9 05:08:05 40° SSW 05:09:23 74° W 05:13:25 10° N
Landsat 7 4.3 05:07:50 29° SSW 05:10:04 57° W 05:14:46 10° NNW
Cosmos 2297 3.9 05:09:39 42° SE 05:10:55 50° ESE 05:16:23 10° NNE
JB-3 4.1 05:11:30 10° NNE 05:15:21 78° E 05:15:21 78° E
Cosmos 1898 Rocket 3.5 05:17:17 51° SSE 05:18:14 59° ESE 05:23:29 10° NNE
CZ-4C R/B 3.4 05:10:49 10° NW 05:18:18 60° WSW 05:22:45 30° S
USA 307 2.7 05:16:05 10° NW 05:20:22 88° NE 05:20:38 79° SE
Cosmos 990 Rocket 3.8 05:18:53 42° S 05:20:42 79° ESE 05:25:58 10° NNE
Cosmos 2228 Rocket 3.0 05:20:30 61° S 05:21:16 90° E 05:25:45 10° N
Iridium 4 Rocket 3.8 05:18:42 32° S 05:21:33 80° W 05:27:30 10° N
Resurs 01 Rocket 3.2 05:20:09 19° SW 05:22:26 29° W 05:26:20 10° NW
Cosmos 923 Rocket 4.0 05:20:42 10° NNW 05:25:58 67° ENE 05:26:50 57° ESE
Milstar 3 3.9 05:14:05 10° WSW 05:28:43 49° S 05:32:03 37° SE
Cosmos 2154 Rocket 4.0 05:22:34 10° N 05:28:52 69° E 05:30:31 50° SE
Delta 2 Rocket 3.8 05:24:42 10° W 05:29:11 56° SSW 05:29:11 56° SSW
Cosmos 2082 Rocket 2.1 05:26:01 10° NNW 05:31:40 83° WSW 05:32:54 56° S
Nadezhda 1 Rocket 3.9 05:30:27 39° S 05:32:58 89° E 05:39:14 10° N
USA 308 3.0 05:29:52 10° NW 05:33:54 68° WSW 05:33:54 68° WSW
Cosmos 2184 Rocket 4.1 05:29:26 10° NNW 05:35:36 71° W 05:37:54 40° SSW
Cosmos 2074 Rocket 4.2 05:30:00 10° NNW 05:36:15 67° W 05:38:47 37° SSW
Cosmos 158 Rocket 4.0 05:31:59 10° NNW 05:36:50 66° WSW 05:37:32 58° SSW
Cosmos 1869 Rocket 3.4 05:32:53 10° N 05:37:03 80° NNE 05:37:03 80° NNE
Cosmos 1666 3.9 05:34:27 10° NNW 05:37:50 33° W 05:38:02 33° W
H-2A R/B 4.0 05:37:52 10° NNE 05:41:02 48° NE 05:41:02 48° NE
Cosmos 1943 Rocket 2.0 05:42:19 66° SE 05:42:42 69° ESE 05:48:18 10° NNE
Cosmos 1461 3.6 05:45:00 49° NE 05:45:00 49° NE 05:48:31 10° NE
Cosmos 1544 4.4 05:42:19 10° N 05:44:36 35° NNE 05:44:36 35° NNE
Cosmos 1707 Rocket 3.9 05:51:17 57° NNE 05:51:17 57° NNE 05:54:52 10° N
CARTOSAT-1 4.2 05:51:55 46° W 05:51:57 46° W 05:56:07 10° NNW
NOSS 3-4 (A) 4.1 05:49:29 10° NW 05:56:38 64° WSW 05:58:46 47° S
NOSS 3-4 (C) 4.1 05:49:35 10° NW 05:56:44 65° WSW 05:58:51 48° S
Cosmos 2369 Rocket 2.9 05:59:03 39° ENE 05:59:03 39° ENE 06:03:08 10° NE
Cosmos 1743 4.0 06:00:05 10° N 06:02:33 37° N 06:02:33 37° N
Cosmos 2112 Rocket 3.9 05:59:06 10° NNW 06:04:28 86° W 06:04:28 86° W
Cosmos 2181 Rocket 4.0 06:05:45 58° E 06:05:45 58° E 06:11:42 10° NNE
ARIANE 5 R/B 4.1 06:09:19 28° W 06:09:19 28° W 06:13:01 10° NW
ERS-1 Rocket 3.5 06:09:43 48° WSW 06:09:54 48° W 06:14:46 10° NNW
SJ 16-02 4.4 06:08:37 10° WNW 06:10:04 11° WNW 06:11:30 10° NW
ATLAS 2AS CENTAUR R/B 2.5 06:02:49 10° NNW 06:10:05 86° WSW 06:11:04 68° SSE
Cosmos 2366 rocket 4.4 06:05:14 10° N 06:11:12 47° ENE 06:11:16 47° E
Cosmos 1340 Rocket 4.0 06:07:39 10° NNW 06:10:32 43° NNW 06:10:32 43° NNW
ISS -0.9 06:09:56 10° WNW 06:12:21 18° NNW 06:14:47 10° NNE
Cosmos 1607 4.4 06:13:47 49° E 06:13:47 49° E 06:19:02 10° NE
Cosmos 44 3.5 06:09:01 10° NNW 06:13:59 75° NW 06:13:59 75° NW
Cosmos 1937 Rocket 3.9 06:14:52 53° W 06:15:24 56° WNW 06:20:30 10° N
Terra 2.3 06:18:04 54° WNW 06:18:04 54° WNW 06:22:16 10° NNW
Cosmos 1733 Rocket 4.1 06:19:18 10° N 06:22:14 43° N 06:22:14 43° N
Meteor 1-19 Rocket 4.2 06:29:30 72° N 06:29:30 72° N 06:34:21 10° N
Cosmos 2341 Rocket 3.9 06:22:57 10° N 06:29:21 78° W 06:29:45 75° SW
Cosmos 1680 Rocket 4.4 06:25:25 10° NNW 06:30:06 41° W 06:30:06 41° W
Cosmos 2218 Rocket 3.9 06:32:13 10° N 06:38:29 81° ENE 06:38:29 81° ENE
Gbstr 26 Del rocket 4.1 06:33:00 10° NW 06:40:15 67° NE 06:40:51 63° ENE
Meteor 2-4 Rocket 4.1 06:43:46 58° NE 06:43:46 58° NE 06:48:23 10° NNE
SL-8 Rocket 4.2 06:48:35 10° NNW 06:54:48 63° W 06:54:48 63° W
RESURS DK-1 4.4 06:54:44 10° N 06:56:49 25° N 06:56:49 25° N
Lacrosse 5 3.9 07:14:44 19° NE 07:14:44 19° NE 07:16:11 10° NE
Cosmos 1125 Rocket 4.5 07:38:44 44° NNW 07:38:44 44° NNW 07:42:36 10° N
Cosmos 2369 Rocket 3.9 07:40:47 23° WNW 07:42:00 24° NW 07:46:33 10° N
ATLAS CENTAUR R/B 4.0 07:43:58 16° N 07:43:58 16° N 07:45:06 10° N
Cosmos 1934 Rocket 4.2 07:44:23 10° N 07:49:39 61° NE 07:49:39 61° NE
Cosmos 2344 4.5 07:42:02 10° NNW 07:51:48 76° NE 07:57:34 40° SE
Cosmos 1821 Rocket 4.4 07:49:46 10° NNW 07:55:17 55° WNW 07:55:17 55° WNW
Cosmos 1727 Rocket 4.5 08:20:16 52° ENE 08:20:16 52° ENE 08:26:01 10° NNE
SL-16 R/B 4.3 08:31:47 18° E 08:34:47 25° ENE 08:39:42 10° N
Cosmos 2227 Rocket 4.0 08:30:15 10° N 08:34:54 25° ENE 08:37:11 20° E
Cosmos 2297 Rocket 3.5 08:32:24 10° N 08:37:32 34° ENE 08:38:42 31° E
SeaSat 1 3.3 08:33:45 10° NNE 08:37:25 47° N 08:37:25 47° N
Cosmos 1656 4.2 08:47:58 52° NE 08:47:58 52° NE 08:52:19 10° NNE
Meteor 1-21 4.4 08:49:38 69° NE 08:49:38 69° NE 08:54:47 10° NNE
Lacrosse 5 3.4 08:53:53 27° NW 08:54:26 28° NW 08:58:49 10° NNE
Cosmos 1605 Rocket 4.5 08:55:58 10° NNW 09:01:19 48° WNW 09:01:19 48° WNW
Cosmos 1153 Rocket 4.5 09:01:39 10° N 09:07:51 73° WNW 09:07:51 73° WNW
Cosmos 2173 Rocket 4.0 09:05:46 10° N 09:11:57 70° E 09:12:31 66° ESE
ADEOS II 3.5 09:15:52 10° NE 09:20:16 27° E 09:20:56 26° ESE
Timation 2 Rocket 4.1 09:14:30 10° NNW 09:20:27 64° ENE 09:21:47 51° ESE
Cosmos 1025 Rocket 4.3 09:22:06 35° ENE 09:22:06 35° ENE 09:25:28 10° NNE
Cosmos 2219 3.3 09:18:20 10° NNW 09:24:03 72° ENE 09:24:35 67° ESE
ISS -0.4 09:26:28 10° NNW 09:28:18 14° NNE 09:30:08 10° NE
Cosmos 304 Rocket 4.2 09:29:06 58° ENE 09:29:06 58° ENE 09:33:10 10° NNE
Helios 1B rocket 3.5 09:25:36 10° NNE 09:28:33 43° NE 09:28:33 43° NE
USA 215 3.1 09:27:27 34° SE 09:30:38 89° SW 09:37:13 10° NW
USA 281 3.1 09:31:59 52° SSE 09:33:48 85° ENE 09:40:24 10° NNW
CZ-2D R/B 2.0 09:28:53 10° NNE 09:34:15 82° E 09:34:15 82° E
COSMOS 2455 3.0 09:28:34 10° NW 09:33:43 57° WNW 09:33:43 57° WNW
Cosmos 1953 3.5 09:32:03 10° N 09:34:51 41° NNE 09:34:51 41° NNE
NPP 3.7 09:30:58 10° NNE 09:36:20 69° ESE 09:36:34 68° ESE
Resurs 1-4 Rocket 2.0 09:31:20 10° NNE 09:36:33 87° NE 09:36:33 87° NE
Cosmos 1674 4.1 09:41:59 36° N 09:41:59 36° N 09:44:21 10° N
Lacrosse 4 Rocket 2.0 09:43:17 60° NE 09:43:17 60° NE 09:46:58 10° NNE
Cosmos 2100 Rocket 4.0 09:36:48 10° NNW 09:43:02 62° W 09:43:23 61° WSW
Cosmos 2123 Rocket 3.8 09:44:16 68° S 09:45:10 89° E 09:51:24 10° N
Cosmos 1802 Rocket 3.8 09:40:36 10° N 09:46:45 79° W 09:47:30 68° SSW
Cosmos 1697 Rocket 2.6 09:50:01 70° W 09:50:22 73° WNW 09:55:59 10° NNE
OAO 2 Rocket 4.2 09:52:19 39° SE 09:52:19 39° SE 09:56:04 10° E
ARGOS Delta rocket 3.9 09:48:35 10° NNE 09:53:20 70° E 09:53:37 68° SE
Cosmos 1626 3.2 09:54:36 43° NNE 09:54:36 43° NNE 09:57:14 10° N
Cosmos 2360 4.1 09:54:07 71° SW 09:54:44 80° WNW 10:00:30 10° NNE
Cosmos 1544 Rocket 3.6 09:53:59 10° N 09:58:13 77° NE 09:58:13 77° NE
Cosmos 2056 Rocket 3.4 09:58:57 65° SE 09:59:27 70° ESE 10:04:33 10° NNE
Meteor 1-16 Rocket 4.2 09:53:44 10° NNW 09:59:38 77° W 10:00:31 63° SSW
Meteor 2-5 Rocket 4.4 09:58:52 34° SE 10:00:52 48° E 10:06:15 10° NNE
SL-14 R/B 3.8 10:01:42 55° ENE 10:01:42 55° ENE 10:05:15 10° NNE
Cosmos 1980 Rocket 2.2 10:02:27 59° S 10:03:28 74° ESE 10:09:09 10° NNE
Cosmos 1864 Rocket 4.4 09:58:28 10° N 10:04:50 78° W 10:06:30 51° SSW
Atlas Centaur 2 4.0 10:06:47 24° SSE 10:06:47 24° SSE 10:12:21 10° ESE
Cosmos 1455 Rocket 4.0 10:04:06 10° NNW 10:07:08 36° NW 10:07:08 36° NW
Cosmos 1371 Rocket 3.8 10:11:41 65° SW 10:12:23 78° WNW 10:17:37 10° NNE
Cosmos 1536 Rocket 3.4 10:14:38 79° S 10:14:53 87° E 10:19:20 10° N
Cosmos 1300 3.5 10:13:34 10° N 10:17:15 46° E 10:18:03 39° ESE
SL-16 R/B 2.7 10:16:52 47° SW 10:17:58 52° W 10:24:05 10° NNW
Cosmos 2227 Rocket 2.5 10:13:46 10° NW 10:18:57 44° W 10:18:57 44° W
Cosmos 1140 Rocket 3.4 10:14:51 10° NNW 10:20:06 90° NNE 10:22:12 38° SSE
Cosmos 2297 Rocket 3.2 10:16:32 10° NW 10:20:27 30° W 10:20:27 30° W
IRS-1D 3.5 10:21:29 10° NNE 10:26:51 88° WNW 10:28:34 45° SSW
Cosmos 2369 4.1 10:25:41 40° WSW 10:27:04 49° WNW 10:32:39 10° NNE
Cosmos 2278 3.6 10:26:15 48° SW 10:27:55 80° WNW 10:33:40 10° NNE
GP-B 3.0 10:24:27 10° N 10:28:54 84° W 10:29:42 60° SSW
APEX 4.0 10:27:37 10° NNW 10:32:27 61° WSW 10:34:42 35° S
AQUA 4.4 10:28:24 10° N 10:32:49 39° WNW 10:33:25 37° W
Iridium 2 3.6 10:34:30 69° W 10:34:30 69° W 10:38:18 10° N
Cosmos 2082 3.6 10:30:03 10° NNW 10:35:42 66° WSW 10:38:41 28° S
Cosmos 1725 Rocket 4.4 10:31:57 10° NNW 10:37:46 42° W 10:39:21 36° SW
IDEFIX/ARIANE 42P 2.7 10:33:58 10° NNE 10:39:15 75° ESE 10:41:51 31° S
SL-16 R/B 3.2 10:36:58 19° SSE 10:40:32 39° ESE 10:45:46 10° NE
Cosmos 1340 2.4 10:40:10 70° SSW 10:40:33 82° WNW 10:44:18 10° N
Cosmos 220 Rocket 4.0 10:43:33 43° S 10:44:56 82° ESE 10:49:22 10° NNE
Cosmos 2233 Rocket 4.0 10:39:19 10° NNW 10:45:22 59° W 10:48:20 30° SSW
Meteor 1-28 Rocket 3.0 10:47:32 58° SSW 10:48:02 67° W 10:51:43 10° NNW
Cosmos 1190 Rocket 4.0 10:44:28 10° NNW 10:49:35 57° WSW 10:52:09 28° S
Cosmos 292 Rocket 3.9 10:48:14 32° S 10:50:26 75° ESE 10:55:18 10° NNE
ARIANE 5 R/B 3.0 10:46:29 10° NNE 10:51:31 56° E 10:55:10 18° S
Cosmos 1420 Rocket 4.1 10:51:54 36° SW 10:53:50 58° WNW 10:58:57 10° N
NOSS 3-2 (A) 3.7 10:51:08 25° S 10:54:12 54° ESE 11:00:08 10° NE
DELTA 2 DEB (DPAF) 4.4 10:53:43 39° SW 10:54:38 45° W 10:58:55 10° NNW
CZ-4B R/B 3.8 10:50:50 10° NNE 10:55:52 66° ESE 10:59:32 19° S
Meteor 2-10 Rocket 4.0 10:51:21 10° N 10:57:01 67° E 11:02:24 10° SSE
ADEOS II 2.9 10:55:13 10° N 10:59:57 35° WNW 11:01:52 27° WSW
MSX 3.8 10:55:05 10° NNE 11:00:54 84° ESE 11:05:08 19° SSW
ADEOS Rocket 3.6 10:56:35 13° S 11:03:12 61° W 11:10:55 10° NNW
Spot 1 4.2 10:59:58 19° S 11:03:18 70° WSW 11:08:14 10° NNW
ISS -3.1 11:02:21 10° NW 11:05:41 58° NE 11:09:01 10° ESE
IRS-P3 4.1 11:01:11 10° NNE 11:06:33 82° WNW 11:10:09 21° SSW
Cosmos 2322 Rocket 2.9 11:02:24 15° S 11:06:58 51° ESE 11:12:28 10° NNE
USA 238 DEB 4.1 11:03:51 17° S 11:08:44 56° ESE 11:15:19 10° NE
USA 238 4.1 11:03:56 17° S 11:08:51 55° ESE 11:15:24 10° NE
Cosmos 405 2.9 11:05:44 10° NNW 11:09:13 61° W 11:10:39 31° SSW
Cosmos 407 Rocket 4.5 11:06:04 10° NW 11:10:28 27° W 11:11:33 25° WSW
Cosmos 2263 Rocket 2.3 11:06:42 10° NNW 11:12:23 82° ENE 11:18:04 10° SSE
CZ-2D R/B 4.1 11:11:15 10° NW 11:13:34 13° WNW 11:15:35 11° W
Cosmos 676 Rocket 4.0 11:08:36 10° NNW 11:13:46 58° WSW 11:18:57 10° S
USA 215 4.3 11:14:39 21° WSW 11:14:39 21° WSW 11:18:51 10° WNW
ERS-1 4.5 11:09:03 10° NNE 11:14:12 89° W 11:18:18 17° SSW
Resurs 1-4 Rocket 4.2 11:13:57 10° NW 11:15:39 12° WNW 11:17:21 10° WNW
Meteor 1-24 Rocket 4.2 11:16:44 23° SW 11:19:40 41° WNW 11:24:46 10° N
Cosmos 1892 Rocket 3.5 11:16:24 17° S 11:19:45 89° E 11:24:06 10° N
Lacrosse 4 Rocket 3.9 11:20:14 10° WNW 11:21:46 11° NW 11:23:16 10° NNW
CENTAUR R/B 2.7 11:22:06 15° SSW 11:26:47 66° ESE 11:33:23 10° NE
ALOS 4.1 11:24:37 10° NE 11:28:40 29° E 11:32:41 10° SSE
Cosmos 2360 Rocket 3.2 11:23:36 10° S 11:28:55 44° ESE 11:34:16 10° NE
BREEZE-M DEB (TANK) 3.9 11:31:02 14° WNW 11:32:21 24° NNW 11:35:10 10° NE
PAYLOAD A 4.2 11:27:55 10° NNE 11:32:36 64° ESE 11:37:14 10° S
Meteor 1-21 Rocket 4.4 11:29:36 10° S 11:35:09 72° E 11:40:41 10° NNE
OAO 2 Rocket 3.6 11:31:15 15° W 11:35:32 58° S 11:40:45 10° ESE
Cosmos 1331 Rocket 4.1 11:30:31 10° S 11:35:38 75° ESE 11:40:50 10° NNE
CZ-2C R/B 2.9 11:32:09 10° NNE 11:37:18 68° ESE 11:42:28 10° S
Cosmos 1452 Rocket 4.0 11:35:17 17° SW 11:39:01 43° WNW 11:44:04 10° N
Okean 1-7 Rocket 3.7 11:34:40 10° S 11:39:12 84° E 11:43:47 10° N
Cosmos 2228 3.7 11:36:00 10° NNW 11:39:52 34° W 11:43:23 12° SSW
Cosmos 2237 4.5 11:35:40 10° SSW 11:41:21 71° ESE 11:47:02 10° NNE
Cosmos 1726 Rocket 3.7 11:38:08 10° NNW 11:42:24 52° W 11:46:42 10° S
Cosmos 2058 Rocket 3.1 11:38:07 10° N 11:42:39 90° ENE 11:47:10 10° S
Cosmos 1606 Rocket 4.1 11:38:48 10° NNW 11:42:55 39° W 11:47:02 10° SSW
Cosmos 389 Rocket 2.4 11:40:24 10° N 11:43:53 87° E 11:47:18 10° S
SL-08 R/B 3.4 11:41:10 10° S 11:45:43 51° W 11:50:15 10° NNW
Aureole 2 Rocket 3.3 11:44:01 10° WNW 11:45:55 17° WSW 11:46:03 17° WSW
Cosmos 1980 Rocket 4.0 11:44:31 10° W 11:48:05 17° NW 11:51:38 10° NNW
BREEZE-M DEB (TANK) 4.0 11:41:09 10° NW 11:53:28 56° SW 11:57:04 10° SSE
SEDSat Delta rocket 4.4 11:49:35 13° SW 11:53:43 30° S 11:57:55 10° ESE
Spot 4 Rocket 4.2 11:49:37 10° N 11:54:41 60° WNW 11:59:43 10° SSW
